EW9798 Weather Reports


Display with metric or nautical units.
time (UTC)temp
F
wind
direction
speed
MPH
gust
MPH
rain 1hr
in
rain 24hr
in
rain mn
in
humidity
%
barometer
mb
20260831193030 77 54 5.0 15.0 0.00 0.00 0.00 39 1013.2
20260831191605 76 115 4.0 14.0 0.00 0.00 0.00 41 1013.7
20260831190029 74 78 3.0 11.0 0.00 0.00 0.00 42 1013.9
20260831184531 73 337 3.0 11.0 0.00 0.00 0.00 48 1014.1
20260831183032 69 340 4.0 12.0 0.00 0.00 0.00 62 1014.7
20260831180030 67 269 2.0 8.0 0.00 0.00 0.00 66 1015.1
20260831174531 65 265 2.0 5.0 0.00 0.00 0.00 69 1015.2
20260831173030 63 255 1.0 3.0 0.00 0.00 0.00 71 1015.4
20260831171532 61 26 1.0 4.0 0.00 0.00 0.00 74 1015.6
20260831170031 60 336 1.0 5.0 0.00 0.00 0.00 77 1015.7
20260831161607 54 232 0.0 3.0 0.00 0.00 0.00 96 1016.3
20260831160106 53 142 0.0 0.0 0.00 0.00 0.00 97 1016.5
20260831154531 52 135 0.0 0.0 0.00 0.00 0.00 97 1016.5
20260831153029 51 135 0.0 0.0 0.00 0.00 0.00 97 1016.5
20260831151531 49 135 0.0 0.0 0.00 0.00 0.00 96 1016.6
20260831150029 47 135 0.0 3.0 0.00 0.00 0.00 96 1016.5
20260831144529 45 135 2.0 3.0 0.00 0.00 0.00 96 1016.3
20260831143031 45 135 0.0 2.0 0.00 0.00 0.00 95 1016.4
20260831141532 44 135 1.0 2.0 0.00 0.00 0.00 95 1016.3
20260831140033 44 135 0.0 3.0 0.00 0.00 0.00 95 1016.2
20260831134531 44 135 0.0 2.0 0.00 0.00 0.00 95 1016.1
20260831133034 44 135 2.0 3.0 0.00 0.00 0.00 95 1016.1
20260831131607 44 135 0.0 1.0 0.00 0.00 0.00 95 1016.1
20260831130106 45 135 0.0 2.0 0.00 0.00 0.00 94 1016.2
20260831124530 45 135 2.0 3.0 0.00 0.00 0.00 94 1016.1
20260831121606 46 135 0.0 3.0 0.00 0.00 0.00 94 1016.0
20260831114532 46 135 1.0 3.0 0.00 0.00 0.00 93 1016.2
20260831113029 46 135 1.0 4.0 0.00 0.00 0.00 93 1016.2
20260831111530 46 135 1.0 3.0 0.00 0.00 0.00 93 1016.2
20260831110030 46 135 2.0 3.0 0.00 0.00 0.00 92 1016.2
20260831104530 47 135 0.0 1.0 0.00 0.00 0.00 92 1016.2
20260831101609 48 135 0.0 3.0 0.00 0.00 0.00 91 1016.2
20260831100028 48 125 1.0 3.0 0.00 0.00 0.00 91 1016.3
20260831094532 48 101 3.0 4.0 0.00 0.00 0.00 90 1016.5
20260831093030 48 107 1.0 3.0 0.00 0.00 0.00 90 1016.6
20260831091532 49 112 1.0 3.0 0.00 0.00 0.00 89 1016.6
20260831090104 49 112 0.0 2.0 0.00 0.00 0.00 89 1016.6
20260831083106 50 135 1.0 4.0 0.00 0.00 0.00 89 1016.8
20260831081530 50 114 2.0 3.0 0.00 0.00 0.00 89 1016.8
20260831080030 50 128 2.0 4.0 0.00 0.00 0.00 88 1016.9
20260831074533 50 118 2.0 4.0 0.00 0.00 0.00 87 1017.0
20260831073049 50 112 0.0 3.0 0.00 0.00 0.00 85 1017.0
20260831064532 54 117 1.0 4.0 0.00 0.00 0.00 79 1017.1
20260831063031 53 135 4.0 5.0 0.00 0.00 0.00 81 1017.1
20260831054530 54 117 1.0 4.0 0.00 0.00 0.00 78 1017.3
20260831053030 55 138 3.0 5.0 0.00 0.00 0.00 79 1017.3
20260831044529 57 135 2.0 5.0 0.00 0.00 0.00 73 1017.3
20260831040029 59 120 4.0 6.0 0.00 0.00 0.00 72 1017.3
20260831034528 59 113 4.0 6.0 0.00 0.00 0.00 72 1017.2
20260831033029 60 120 3.0 5.0 0.00 0.00 0.00 70 1017.0
20260831031531 62 99 1.0 3.0 0.00 0.00 0.00 68 1016.8
20260831030029 63 75 3.0 6.0 0.00 0.00 0.00 65 1016.8
20260831023030 67 37 2.0 5.0 0.00 0.00 0.00 60 1016.7
20260831021609 68 16 3.0 6.0 0.00 0.00 0.00 57 1016.7
20260831020033 69 337 3.0 7.0 0.00 0.00 0.00 54 1016.6
20260831011530 73 282 3.0 8.0 0.00 0.00 0.00 47 1016.9
20260831010032 74 286 4.0 10.0 0.00 0.00 0.00 46 1017.0
20260831004531 73 283 4.0 10.0 0.00 0.00 0.00 47 1017.0
20260831003029 74 282 5.0 11.0 0.00 0.00 0.00 45 1017.0
20260831001529 73 298 5.0 15.0 0.00 0.00 0.00 46 1017.0
20260831000032 73 313 6.0 16.0 0.00 0.00 0.00 45 1017.1
20260830234531 72 301 6.0 17.0 0.00 0.00 0.00 44 1017.3
20260830233030 72 319 7.0 16.0 0.00 0.00 0.00 43 1017.4
20260830231532 72 327 5.0 16.0 0.00 0.00 0.00 45 1017.5
20260830224531 72 346 6.0 12.0 0.00 0.00 0.00 47 1017.8
20260830223030 72 345 5.0 12.0 0.00 0.00 0.00 48 1018.2
20260830221529 72 339 6.0 13.0 0.00 0.00 0.00 49 1018.4
20260830220029 71 324 5.0 15.0 0.00 0.00 0.00 49 1018.5
20260830214530 71 323 6.0 16.0 0.00 0.00 0.00 49 1018.8
20260830213030 71 327 7.0 13.0 0.00 0.00 0.00 49 1019.0
20260830203031 69 339 5.0 11.0 0.00 0.00 0.00 51 1019.6
20260830201530 69 331 5.0 11.0 0.00 0.00 0.00 51 1019.8
20260830200032 69 326 4.0 10.0 0.00 0.00 0.00 52 1020.0
20260830194529 68 336 4.0 10.0 0.00 0.00 0.00 54 1020.1